Theta_e
312 310 311 312 310 313 313 313 314 313 313 313 311 312 312 311 310 310 311 311 311 311 309 309 309 309 310 312 312 313 313 317 319 320 321 322 324 324 324 323 322 320 320 318
311 311 312 312 311 311 312 313 313 312 312 311 312 311 310 309 310 311 312 312 312 310 309 308 308 308 309 312 312 314 314 317 319 321 322 321 323 322 320 320 319 316 314 311
312 314 312 312 313 313 312 312 313 314 313 311 311 314 312 310 310 313 314 314 312 312 310 308 307 307 309 312 313 314 315 316 318 319 320 320 320 319 318 317 314 309 305 304
312 313 314 312 313 313 315 312 314 314 315 315 312 318 314 311 310 309 312 312 310 310 308 308 307 307 309 312 313 314 315 316 318 319 320 318 320 319 313 314 311 303 297 296
314 314 313 314 314 312 314 312 313 314 313 312 313 314 315 312 312 311 312 311 309 310 310 309 308 308 309 312 313 313 315 316 317 318 317 318 317 313 309 308 304 296 293 293
312 312 312 313 312 311 311 312 311 310 311 314 313 313 319 315 314 312 311 311 311 309 307 308 307 307 310 311 311 313 314 315 315 314 314 315 312 311 308 302 297 293 292 292
313 312 312 312 312 311 311 312 315 315 313 317 311 313 317 313 313 311 311 309 307 306 306 306 306 307 309 310 311 311 313 313 312 312 310 307 308 306 302 299 294 293 292 292
313 317 311 310 312 313 310 313 315 316 316 315 311 314 314 311 309 308 310 310 306 304 305 306 306 306 309 309 310 311 312 310 309 307 306 306 302 301 296 294 293 292 292 292
313 315 311 309 310 312 311 313 313 315 303 311 314 313 312 309 307 306 305 304 303 303 304 305 304 305 308 310 310 311 311 310 310 308 306 300 297 295 293 292 292 292 291 291
314 318 310 310 312 311 311 310 313 316 316 317 314 314 317 314 311 305 301 301 302 302 303 304 304 304 306 309 309 309 310 310 308 304 299 297 293 292 292 292 292 291 291 291
313 317 315 311 312 312 313 312 313 315 314 315 313 316 310 312 310 306 302 302 302 302 303 303 303 303 304 306 306 307 305 303 301 297 295 293 292 291 291 291 291 291 291 290
312 316 314 314 310 309 312 314 315 318 316 312 312 319 308 308 305 306 304 304 302 302 302 302 301 301 301 304 304 305 304 302 299 297 294 292 292 291 291 290 290 290 290 289
314 315 318 312 316 313 312 311 314 316 314 318 319 319 304 306 305 305 304 303 302 301 301 300 300 299 299 300 301 302 300 298 297 294 292 291 291 290 290 290 290 290 289 289
315 312 313 316 314 312 311 311 313 315 318 315 318 318 313 308 307 305 304 304 303 302 301 300 299 298 298 299 300 299 296 295 294 292 291 290 290 290 290 290 289 289 288 288
315 317 313 315 314 310 309 310 311 314 316 318 318 315 315 313 310 310 308 304 303 302 300 300 300 298 297 297 296 295 294 293 292 291 290 290 290 289 289 289 289 288 288 287
311 317 312 317 313 312 316 315 310 312 314 315 316 316 314 312 309 308 310 307 302 302 302 299 297 297 297 297 296 294 293 292 291 290 290 289 289 289 288 289 289 288 288 287
313 315 315 317 314 314 316 315 315 315 314 314 315 314 313 311 311 312 309 307 306 307 305 300 299 298 297 296 296 294 292 291 291 290 289 289 288 288 288 289 288 288 288 287
309 312 315 317 313 317 313 304 311 313 313 313 313 312 311 311 312 312 312 311 310 309 307 304 302 300 298 296 295 294 293 291 290 290 289 289 288 288 288 288 288 288 288 289
304 307 311 311 313 309 309 303 307 311 312 310 312 312 312 312 308 309 312 311 311 311 311 310 311 310 302 297 294 293 293 292 291 290 289 289 288 288 288 288 288 288 291 289
301 303 309 310 312 313 306 298 300 301 309 299 307 310 310 304 305 310 310 311 310 309 308 308 307 302 302 300 296 294 293 292 292 291 290 289 288 288 288 288 288 292 291 289
301 303 306 309 311 308 303 299 302 306 308 299 304 306 304 302 307 308 309 308 308 307 307 306 305 306 307 304 303 301 297 295 294 291 290 289 289 288 288 288 288 291 290 288
303 305 305 307 309 309 300 297 306 302 296 297 299 304 304 304 305 307 308 307 307 308 307 305 304 305 303 302 301 298 296 297 293 293 293 291 291 289 289 287 288 290 288 286
304 303 302 305 305 298 298 298 298 296 296 296 298 301 304 303 303 303 304 303 303 303 304 305 304 303 302 300 299 298 296 294 293 292 291 291 289 288 287 287 288 291 287 286
295 295 299 301 300 298 298 300 301 300 300 296 296 299 301 302 302 300 299 299 299 298 299 300 301 301 301 300 298 297 296 295 293 292 291 290 290 289 287 287 287 292 287 286
295 295 295 297 297 296 299 302 302 300 297 296 295 296 297 297 297 296 296 296 296 297 298 299 300 299 299 298 297 296 295 294 292 291 290 290 289 289 288 287 288 292 289 286
292 295 297 298 299 299 300 301 301 300 298 297 295 295 295 295 295 295 295 295 295 297 297 295 294 293 294 295 296 295 294 293 292 291 290 290 289 289 288 287 291 292 288 286
Wind_Speed
4 3 7 13 9 4 4 4 5 5 5 4 8 14 16 21 22 23 29 32 34 34 29 26 25 23 21 20 19 18 19 22 25 27 27 31 33 29 26 23 19 18 19 20
3 8 15 2 7 7 4 5 10 7 5 8 10 14 11 13 18 31 38 40 40 38 36 32 29 25 22 20 20 20 21 24 27 27 34 24 30 27 26 23 24 23 19 16
9 7 7 10 5 6 7 10 5 8 6 4 7 13 11 10 25 36 43 47 40 46 44 37 32 27 24 23 22 22 22 27 32 35 37 37 31 31 29 23 21 20 19 19
7 8 5 5 6 9 8 7 7 6 2 6 2 17 6 7 12 13 34 38 36 38 42 39 34 29 26 24 22 22 27 29 31 34 33 29 34 33 31 27 24 24 23 22
8 6 7 9 7 9 6 5 5 2 2 4 4 4 1 3 7 13 25 28 32 39 44 43 37 30 26 25 25 26 28 34 36 34 37 39 37 36 34 32 31 29 26 21
4 1 5 8 3 7 6 5 6 4 2 7 9 8 32 6 16 8 9 17 29 35 40 40 34 29 28 27 26 28 30 33 37 38 40 38 37 36 35 34 34 31 27 22
1 6 3 5 5 2 5 7 2 3 0 9 3 9 20 8 11 8 10 16 23 32 37 40 37 33 30 30 29 31 33 35 36 37 36 35 35 36 36 36 34 31 26 21
6 5 10 7 11 8 7 9 5 7 4 4 3 8 6 5 11 14 13 14 22 30 37 40 37 34 32 31 33 35 35 36 36 34 33 33 35 35 35 34 31 27 23 19
6 5 2 3 2 11 5 7 7 2 2 1 5 8 11 10 7 4 4 17 25 32 37 37 34 32 32 33 36 37 37 36 36 34 34 36 37 37 35 32 28 25 22 18
5 2 0 1 4 2 7 6 3 2 3 6 5 7 11 7 10 6 7 18 25 32 34 35 34 32 32 34 35 36 36 37 36 35 37 39 39 36 33 31 28 24 21 17
5 4 3 3 6 10 4 3 3 4 4 4 3 7 7 6 6 9 10 22 27 33 35 35 34 32 34 37 37 36 37 37 37 38 40 41 39 36 33 30 26 23 20 17
6 3 4 8 1 1 2 7 6 4 6 5 1 14 2 3 7 8 13 22 24 28 31 32 33 33 36 39 39 40 40 40 39 41 44 43 40 37 33 29 26 22 19 17
6 2 2 5 1 2 6 7 13 12 3 9 5 11 2 3 5 4 9 16 22 25 28 31 33 35 37 38 39 40 42 42 42 44 45 44 42 39 34 30 26 23 19 16
17 5 6 8 4 5 5 8 14 17 7 5 18 20 13 1 2 3 6 14 20 25 29 32 34 36 38 40 42 43 43 43 45 46 45 44 41 37 33 30 26 22 19 15
13 10 10 15 9 5 6 6 18 23 27 12 23 17 33 7 8 16 12 16 23 27 31 35 38 40 41 42 44 44 44 45 46 47 46 44 40 36 33 30 26 22 19 16
2 11 8 15 14 12 18 18 15 17 23 23 26 26 22 10 8 12 22 26 29 30 32 33 36 39 42 45 48 47 47 47 48 47 46 43 41 38 34 30 27 23 19 16
6 6 7 23 11 12 14 34 20 22 18 18 21 29 31 13 15 26 30 26 30 30 32 35 36 38 41 45 48 50 49 49 48 47 46 44 41 39 35 32 28 24 20 14
4 11 10 9 6 13 8 2 14 25 25 24 23 23 22 22 30 33 36 37 39 33 32 32 31 32 37 42 46 48 49 50 50 49 47 45 44 40 37 34 29 25 18 14
7 4 3 4 7 5 3 5 8 10 13 20 21 27 34 26 13 26 30 33 34 34 35 33 30 28 33 40 43 46 49 50 50 52 50 50 47 44 39 36 31 25 20 19
2 1 3 1 3 7 6 3 6 4 9 6 16 22 17 10 4 12 11 25 27 26 28 29 28 29 27 30 37 42 45 50 53 55 54 51 48 44 41 37 34 26 22 23
4 3 8 9 5 4 6 5 8 7 9 5 6 17 12 7 10 4 4 6 12 17 16 19 23 27 28 30 33 38 42 49 52 52 52 51 47 45 41 39 38 27 25 29
8 8 5 4 6 9 9 5 10 2 1 1 3 6 11 14 7 5 4 9 10 12 15 19 24 27 32 33 35 39 45 44 48 50 49 52 50 50 47 43 38 35 31 35
3 6 6 9 7 3 17 4 7 2 2 2 4 5 6 11 9 6 4 5 6 8 11 15 18 23 27 29 32 35 36 38 41 44 47 48 51 50 49 46 44 38 38 37
4 2 2 3 5 6 8 19 12 7 7 5 4 2 6 8 9 7 5 5 6 6 7 8 10 14 18 21 25 28 29 31 34 37 40 43 49 50 49 48 46 38 39 39
4 7 6 4 5 6 16 19 19 17 12 10 8 6 6 6 5 5 5 6 8 8 7 8 8 9 11 13 18 21 23 26 30 33 35 38 43 47 49 49 44 39 38 38
7 6 5 5 10 6 5 6 13 17 19 16 11 9 9 7 6 7 7 8 10 11 11 11 9 8 9 12 15 18 20 23 27 30 32 35 38 41 46 47 41 39 38 39
Wind_Direction
172 126 203 211 200 204 160 190 229 242 230 197 229 238 248 229 223 233 232 230 228 227 223 219 219 219 215 212 211 209 206 198 197 196 201 206 182 169 173 186 192 182 175 170
75 229 224 186 191 207 237 253 260 299 251 189 261 250 242 216 224 229 234 235 232 224 217 215 215 218 217 217 211 204 199 194 189 188 176 189 189 180 177 176 173 168 168 171
179 212 182 178 176 185 226 225 239 228 309 250 295 268 235 244 227 239 244 247 240 231 217 212 210 213 213 214 212 203 195 198 200 207 206 183 179 170 164 167 170 165 164 165
231 233 163 165 201 177 234 200 201 240 306 260 100 293 229 229 232 226 238 239 231 224 223 216 211 212 214 212 206 200 196 194 187 187 193 202 181 175 171 173 175 165 161 158
226 184 184 202 190 169 232 173 198 221 243 337 172 297 23 144 239 241 244 241 229 227 222 212 210 210 210 210 203 196 196 198 199 202 194 184 181 177 167 168 168 163 157 154
225 121 151 193 137 169 147 82 48 57 72 265 183 181 283 212 234 251 273 239 226 217 214 211 205 204 205 202 199 194 197 199 199 193 191 187 183 176 171 167 166 162 158 154
294 216 195 163 107 83 120 105 299 325 36 250 303 209 249 303 287 230 263 238 217 210 209 200 197 197 199 198 195 196 198 199 197 195 189 186 184 176 173 169 168 164 160 154
175 282 168 189 193 179 188 159 166 218 212 280 337 242 253 244 268 292 285 246 211 204 203 197 198 200 201 199 194 195 197 195 195 192 190 188 184 178 173 170 168 164 160 156
186 264 42 176 132 156 194 201 197 66 94 320 227 289 283 257 276 278 221 181 192 196 195 197 198 203 201 197 194 197 196 198 195 191 190 185 183 178 173 169 168 166 164 160
208 232 326 240 119 38 166 162 90 93 213 236 270 264 237 278 260 213 190 192 196 197 197 200 202 203 203 199 198 199 200 199 196 190 188 186 181 178 176 174 172 170 168 164
174 164 239 145 208 177 149 180 202 139 171 200 286 257 211 235 279 232 210 208 205 202 202 204 205 205 204 201 201 202 200 198 195 191 188 186 182 181 180 178 176 175 172 166
203 159 200 208 205 313 340 184 140 184 209 232 151 267 126 230 283 249 219 213 210 212 208 208 208 207 205 204 203 204 203 201 199 194 190 187 185 183 182 180 179 177 174 167
162 228 180 323 29 312 214 200 200 206 60 215 187 258 27 14 8 309 210 203 208 211 211 212 210 209 210 210 208 207 205 202 199 195 191 188 187 185 184 183 181 178 178 175
142 192 206 220 188 131 177 214 209 198 219 194 230 261 249 239 295 257 222 211 210 215 213 215 215 214 214 212 210 208 205 202 197 194 193 191 189 187 186 184 183 181 177 178
171 225 210 243 228 184 193 214 215 208 226 211 252 231 256 222 244 257 235 211 207 214 218 220 217 214 213 213 211 209 205 200 199 197 196 195 192 190 188 186 183 181 179 180
224 227 177 250 239 233 250 242 223 226 236 232 251 258 254 271 289 246 238 220 214 223 227 224 222 219 218 214 212 209 206 204 202 201 199 197 194 192 190 188 186 184 184 186
199 228 226 253 236 227 230 237 228 233 229 228 237 247 263 249 243 247 251 235 229 230 233 230 229 226 222 220 217 212 208 207 205 205 203 200 198 196 194 192 190 188 187 186
192 220 216 241 146 224 236 77 226 228 233 230 239 256 256 249 253 256 258 252 247 239 234 231 227 228 230 226 220 216 214 212 210 209 207 205 203 201 199 195 193 190 188 208
194 144 240 190 218 323 260 195 161 177 245 231 231 247 254 265 259 261 257 258 257 255 243 236 235 232 227 223 221 219 217 216 216 215 212 210 207 205 201 199 196 193 210 212
115 301 204 203 216 212 236 252 156 108 269 208 213 236 255 143 220 261 279 251 243 241 238 232 229 221 217 223 222 221 222 221 221 221 217 214 212 209 207 205 200 211 214 221
159 173 209 228 252 269 251 187 136 137 249 186 202 233 210 192 223 241 231 224 233 239 244 237 225 223 222 217 214 220 225 228 229 224 222 220 216 215 213 211 203 227 217 224
167 165 182 202 240 254 161 118 177 191 64 202 251 237 220 218 183 195 191 207 209 217 221 221 223 225 226 224 225 223 225 231 228 228 228 224 224 219 216 210 211 232 218 224
216 192 180 186 205 211 199 210 201 91 1 319 279 245 208 202 198 200 218 220 215 219 224 226 229 231 233 233 234 234 235 232 231 230 229 225 221 219 215 210 217 233 222 225
282 144 178 89 223 231 230 228 247 244 256 279 267 238 176 180 180 170 181 218 228 221 217 218 217 216 224 229 232 235 238 236 232 231 228 225 222 220 216 217 220 235 224 228
185 142 170 267 268 282 259 245 243 237 239 226 223 199 200 196 199 205 206 222 227 220 207 198 200 207 213 219 223 227 231 233 232 231 229 227 224 223 220 222 230 236 233 237
189 171 174 217 218 202 245 245 240 234 231 226 216 209 210 217 223 228 224 215 210 199 184 174 171 184 201 214 221 226 229 231 232 233 232 229 228 227 222 223 240 239 236 240